#Datum;Uhrzeit;WR;Pac;DaySum;Status;WR;Pac;DaySum;Status;Pdc1;Udc;Temp;WR;Pac;DaySum;Status;Pdc1;Udc;Temp;WR;Pac;DaySum;Status;Pdc1;Udc;Temp;WR;Pac;DaySum;Status;Pdc1;Pdc2;Udc1;Udc2;Temp;WR;Pac;DaySum;Status;Pdc1;Pdc2;Udc1;Udc2;Temp;WR;Pac;DaySum;Status;Pdc1;Udc;Temp;WR;Pac;DaySum;Status;Pdc1;Udc;Temp;WR;Pac;DaySum;Status;Pdc1;Udc;Temp
10.03.20;23:55:00;1;270;12054;0;2;0;6531;0;0;0;0;3;0;4087;0;0;0;0;4;0;5743;0;0;0;0;5;0;14611;0;0;0;0;0;0;6;0;10830;0;0;0;0;0;0;7;0;7297;0;0;0;0;8;0;7346;0;0;0;0;9;0;3976;0;0;0;0
10.03.20;23:50:00;1;270;12031;0;2;0;6531;0;0;0;0;3;0;4087;0;0;0;0;4;0;5743;0;0;0;0;5;0;14611;0;0;0;0;0;0;6;0;10830;0;0;0;0;0;0;7;0;7297;0;0;0;0;8;0;7346;0;0;0;0;9;0;3976;0;0;0;0
10.03.20;23:45:00;1;289;12009;0;2;0;6531;0;0;0;0;3;0;4087;0;0;0;0;4;0;5743;0;0;0;0;5;0;14611;0;0;0;0;0;0;6;0;10830;0;0;0;0;0;0;7;0;7297;0;0;0;0;8;0;7346;0;0;0;0;9;0;3976;0;0;0;0
10.03.20;23:40:00;1;239;11983;0;2;0;6531;0;0;0;0;3;0;4087;0;0;0;0;4;0;5743;0;0;0;0;5;0;14611;0;0;0;0;0;0;6;0;10830;0;0;0;0;0;0;7;0;7297;0;0;0;0;8;0;7346;0;0;0;0;9;0;3976;0;0;0;0
10.03.20;23:35:00;1;229;11964;0;2;0;6531;0;0;0;0;3;0;4087;0;0;0;0;4;0;5743;0;0;0;0;5;0;14611;0;0;0;0;0;0;6;0;10830;0;0;0;0;0;0;7;0;7297;0;0;0;0;8;0;7346;0;0;0;0;9;0;3976;0;0;0;0
10.03.20;23:30:00;1;230;11945;0;2;0;6531;0;0;0;0;3;0;4087;0;0;0;0;4;0;5743;0;0;0;0;5;0;14611;0;0;0;0;0;0;6;0;10830;0;0;0;0;0;0;7;0;7297;0;0;0;0;8;0;7346;0;0;0;0;9;0;3976;0;0;0;0
10.03.20;23:25:00;1;226;11925;0;2;0;6531;0;0;0;0;3;0;4087;0;0;0;0;4;0;5743;0;0;0;0;5;0;14611;0;0;0;0;0;0;6;0;10830;0;0;0;0;0;0;7;0;7297;0;0;0;0;8;0;7346;0;0;0;0;9;0;3976;0;0;0;0
10.03.20;23:20:00;1;227;11906;0;2;0;6531;0;0;0;0;3;0;4087;0;0;0;0;4;0;5743;0;0;0;0;5;0;14611;0;0;0;0;0;0;6;0;10830;0;0;0;0;0;0;7;0;7297;0;0;0;0;8;0;7346;0;0;0;0;9;0;3976;0;0;0;0
10.03.20;23:15:00;1;251;11887;0;2;0;6531;0;0;0;0;3;0;4087;0;0;0;0;4;0;5743;0;0;0;0;5;0;14611;0;0;0;0;0;0;6;0;10830;0;0;0;0;0;0;7;0;7297;0;0;0;0;8;0;7346;0;0;0;0;9;0;3976;0;0;0;0
10.03.20;23:10:00;1;316;11866;0;2;0;6531;0;0;0;0;3;0;4087;0;0;0;0;4;0;5743;0;0;0;0;5;0;14611;0;0;0;0;0;0;6;0;10830;0;0;0;0;0;0;7;0;7297;0;0;0;0;8;0;7346;0;0;0;0;9;0;3976;0;0;0;0
10.03.20;23:05:00;1;270;11841;0;2;0;6531;0;0;0;0;3;0;4087;0;0;0;0;4;0;5743;0;0;0;0;5;0;14611;0;0;0;0;0;0;6;0;10830;0;0;0;0;0;0;7;0;7297;0;0;0;0;8;0;7346;0;0;0;0;9;0;3976;0;0;0;0
10.03.20;23:00:00;1;271;11818;0;2;0;6531;0;0;0;0;3;0;4087;0;0;0;0;4;0;5743;0;0;0;0;5;0;14611;0;0;0;0;0;0;6;0;10830;0;0;0;0;0;0;7;0;7297;0;0;0;0;8;0;7346;0;0;0;0;9;0;3976;0;0;0;0
10.03.20;22:55:00;1;293;11791;0;2;0;6531;0;0;0;0;3;0;4087;0;0;0;0;4;0;5743;0;0;0;0;5;0;14611;2;0;0;0;0;0;6;0;10830;2;0;0;0;0;0;7;0;7297;0;0;0;0;8;0;7346;0;0;0;0;9;0;3976;0;0;0;0
10.03.20;22:50:00;1;294;11767;0;2;0;6531;0;0;0;0;3;0;4087;0;0;0;0;4;0;5743;0;0;0;0;5;0;14611;2;0;0;0;0;0;6;0;10830;2;0;0;0;0;0;7;0;7297;0;0;0;0;8;0;7346;0;0;0;0;9;0;3976;0;0;0;0
10.03.20;22:45:00;1;294;11742;0;2;0;6531;0;0;0;0;3;0;4087;0;0;0;0;4;0;5743;0;0;0;0;5;0;14611;2;0;0;0;0;0;6;0;10830;2;0;0;0;0;0;7;0;7297;0;0;0;0;8;0;7346;0;0;0;0;9;0;3976;0;0;0;0
10.03.20;22:40:00;1;359;11717;0;2;0;6531;0;0;0;0;3;0;4087;0;0;0;0;4;0;5743;0;0;0;0;5;0;14611;2;0;0;0;0;0;6;0;10830;2;0;0;0;0;0;7;0;7297;0;0;0;0;8;0;7346;0;0;0;0;9;0;3976;0;0;0;0
10.03.20;22:35:00;1;295;11688;0;2;0;6531;0;0;0;0;3;0;4087;0;0;0;0;4;0;5743;0;0;0;0;5;0;14611;2;0;0;0;0;0;6;0;10830;2;0;0;0;0;0;7;0;7297;0;0;0;0;8;0;7346;0;0;0;0;9;0;3976;0;0;0;0
10.03.20;22:30:00;1;295;11663;0;2;0;6531;0;0;0;0;3;0;4087;0;0;0;0;4;0;5743;0;0;0;0;5;0;14611;2;0;0;0;0;0;6;0;10830;2;0;0;0;0;0;7;0;7297;0;0;0;0;8;0;7346;0;0;0;0;9;0;3976;0;0;0;0
10.03.20;22:25:00;1;258;11638;0;2;0;6531;0;0;0;0;3;0;4087;0;0;0;0;4;0;5743;0;0;0;0;5;0;14611;2;0;0;0;0;0;6;0;10830;2;0;0;0;0;0;7;0;7297;0;0;0;0;8;0;7346;0;0;0;0;9;0;3976;0;0;0;0
10.03.20;22:20:00;1;280;11616;0;2;0;6531;0;0;0;0;3;0;4087;0;0;0;0;4;0;5743;0;0;0;0;5;0;14611;2;0;0;0;0;0;6;0;10830;2;0;0;0;0;0;7;0;7297;0;0;0;0;8;0;7346;0;0;0;0;9;0;3976;0;0;0;0
10.03.20;22:15:00;1;307;11592;0;2;0;6531;0;0;0;0;3;0;4087;0;0;0;0;4;0;5743;0;0;0;0;5;0;14611;2;0;0;0;0;0;6;0;10830;2;0;0;0;0;0;7;0;7297;0;0;0;0;8;0;7346;0;0;0;0;9;0;3976;0;0;0;0
10.03.20;22:10:00;1;316;11566;0;2;0;6531;0;0;0;0;3;0;4087;0;0;0;0;4;0;5743;0;0;0;0;5;0;14611;2;0;0;0;0;0;6;0;10830;2;0;0;0;0;0;7;0;7297;0;0;0;0;8;0;7346;0;0;0;0;9;0;3976;0;0;0;0
10.03.20;22:05:00;1;275;11538;0;2;0;6531;0;0;0;0;3;0;4087;0;0;0;0;4;0;5743;0;0;0;0;5;0;14611;2;0;0;0;0;0;6;0;10830;2;0;0;0;0;0;7;0;7297;0;0;0;0;8;0;7346;0;0;0;0;9;0;3976;0;0;0;0
10.03.20;22:00:00;1;268;11515;0;2;0;6531;0;0;0;0;3;0;4087;0;0;0;0;4;0;5743;0;0;0;0;5;0;14611;2;0;0;0;0;0;6;0;10830;2;0;0;0;0;0;7;0;7297;0;0;0;0;8;0;7346;0;0;0;0;9;0;3976;0;0;0;0
10.03.20;21:55:00;1;294;11492;0;2;0;6531;0;0;0;0;3;0;4087;0;0;0;0;4;0;5743;0;0;0;0;5;0;14611;2;0;0;0;0;0;6;0;10830;2;0;0;0;0;0;7;0;7297;0;0;0;0;8;0;7346;0;0;0;0;9;0;3976;0;0;0;0
10.03.20;21:50:00;1;313;11468;0;2;0;6531;0;0;0;0;3;0;4087;0;0;0;0;4;0;5743;0;0;0;0;5;0;14611;2;0;0;0;0;0;6;0;10830;2;0;0;0;0;0;7;0;7297;0;0;0;0;8;0;7346;0;0;0;0;9;0;3976;0;0;0;0
10.03.20;21:45:00;1;377;11442;0;2;0;6531;0;0;0;0;3;0;4087;0;0;0;0;4;0;5743;0;0;0;0;5;0;14611;2;0;0;0;0;0;6;0;10830;2;0;0;0;0;0;7;0;7297;0;0;0;0;8;0;7346;0;0;0;0;9;0;3976;0;0;0;0
10.03.20;21:40:00;1;399;11410;0;2;0;6531;0;0;0;0;3;0;4087;0;0;0;0;4;0;5743;0;0;0;0;5;0;14611;2;0;0;0;0;0;6;0;10830;2;0;0;0;0;0;7;0;7297;0;0;0;0;8;0;7346;0;0;0;0;9;0;3976;0;0;0;0
10.03.20;21:35:00;1;494;11373;0;2;0;6531;0;0;0;0;3;0;4087;0;0;0;0;4;0;5743;0;0;0;0;5;0;14611;2;0;0;0;0;0;6;0;10830;2;0;0;0;0;0;7;0;7297;0;0;0;0;8;0;7346;0;0;0;0;9;0;3976;0;0;0;0
10.03.20;21:30:00;1;450;11333;0;2;0;6531;0;0;0;0;3;0;4087;0;0;0;0;4;0;5743;0;0;0;0;5;0;14611;2;0;0;0;0;0;6;0;10830;2;0;0;0;0;0;7;0;7297;0;0;0;0;8;0;7346;0;0;0;0;9;0;3976;0;0;0;0
10.03.20;21:25:00;1;417;11296;0;2;0;6531;0;0;0;0;3;0;4087;0;0;0;0;4;0;5743;0;0;0;0;5;0;14611;2;0;0;0;0;0;6;0;10830;2;0;0;0;0;0;7;0;7297;0;0;0;0;8;0;7346;0;0;0;0;9;0;3976;0;0;0;0
10.03.20;21:20:00;1;375;11261;0;2;0;6531;0;0;0;0;3;0;4087;0;0;0;0;4;0;5743;0;0;0;0;5;0;14611;2;0;0;0;0;0;6;0;10830;2;0;0;0;0;0;7;0;7297;0;0;0;0;8;0;7346;0;0;0;0;9;0;3976;0;0;0;0
10.03.20;21:15:00;1;377;11229;0;2;0;6531;0;0;0;0;3;0;4087;0;0;0;0;4;0;5743;0;0;0;0;5;0;14611;2;0;0;0;0;0;6;0;10830;2;0;0;0;0;0;7;0;7297;0;0;0;0;8;0;7346;0;0;0;0;9;0;3976;0;0;0;0
10.03.20;21:10:00;1;381;11198;0;2;0;6531;0;0;0;0;3;0;4087;0;0;0;0;4;0;5743;0;0;0;0;5;0;14611;2;0;0;0;0;0;6;0;10830;2;0;0;0;0;0;7;0;7297;0;0;0;0;8;0;7346;0;0;0;0;9;0;3976;0;0;0;0
10.03.20;21:05:00;1;451;11166;0;2;0;6531;0;0;0;0;3;0;4087;0;0;0;0;4;0;5743;0;0;0;0;5;0;14611;2;0;0;0;0;0;6;0;10830;2;0;0;0;0;0;7;0;7297;0;0;0;0;8;0;7346;0;0;0;0;9;0;3976;0;0;0;0
10.03.20;21:00:00;1;412;11129;0;2;0;6531;0;0;0;0;3;0;4087;0;0;0;0;4;0;5743;0;0;0;0;5;0;14611;2;0;0;0;0;0;6;0;10830;2;0;0;0;0;0;7;0;7297;0;0;0;0;8;0;7346;0;0;0;0;9;0;3976;0;0;0;0
10.03.20;20:55:00;1;471;11090;0;2;0;6531;0;0;0;0;3;0;4087;0;0;0;0;4;0;5743;0;0;0;0;5;0;14611;2;0;0;0;0;0;6;0;10830;2;0;0;0;0;0;7;0;7297;0;0;0;0;8;0;7346;0;0;0;0;9;0;3976;0;0;0;0
10.03.20;20:50:00;1;470;11050;0;2;0;6531;0;0;0;0;3;0;4087;0;0;0;0;4;0;5743;0;0;0;0;5;0;14611;2;0;0;0;0;0;6;0;10830;2;0;0;0;0;0;7;0;7297;0;0;0;0;8;0;7346;0;0;0;0;9;0;3976;0;0;0;0
10.03.20;20:45:00;1;513;11005;0;2;0;6531;0;0;0;0;3;0;4087;0;0;0;0;4;0;5743;0;0;0;0;5;0;14611;2;0;0;0;0;0;6;0;10830;2;0;0;0;0;0;7;0;7297;0;0;0;0;8;0;7346;0;0;0;0;9;0;3976;0;0;0;0
10.03.20;20:40:00;1;535;10961;0;2;0;6531;0;0;0;0;3;0;4087;0;0;0;0;4;0;5743;0;0;0;0;5;0;14611;2;0;0;0;0;0;6;0;10830;2;0;0;0;0;0;7;0;7297;0;0;0;0;8;0;7346;0;0;0;0;9;0;3976;0;0;0;0
10.03.20;20:35:00;1;520;10918;0;2;0;6531;0;0;0;0;3;0;4087;0;0;0;0;4;0;5743;0;0;0;0;5;0;14611;2;0;0;0;0;0;6;0;10830;2;0;0;0;0;0;7;0;7297;0;0;0;0;8;0;7346;0;0;0;0;9;0;3976;0;0;0;0
10.03.20;20:30:00;1;502;10875;0;2;0;6531;0;0;0;0;3;0;4087;0;0;0;0;4;0;5743;0;0;0;0;5;0;14611;2;0;0;0;0;0;6;0;10830;2;0;0;0;0;0;7;0;7297;0;0;0;0;8;0;7346;0;0;0;0;9;0;3976;0;0;0;0
10.03.20;20:25:00;1;359;10839;0;2;0;6531;0;0;0;0;3;0;4087;0;0;0;0;4;0;5743;0;0;0;0;5;0;14611;2;0;0;0;0;0;6;0;10830;2;0;0;0;0;0;7;0;7297;0;0;0;0;8;0;7346;0;0;0;0;9;0;3976;0;0;0;0
10.03.20;20:20:00;1;359;10809;0;2;0;6531;0;0;0;0;3;0;4087;0;0;0;0;4;0;5743;0;0;0;0;5;0;14611;2;0;0;0;0;0;6;0;10830;2;0;0;0;0;0;7;0;7297;0;0;0;0;8;0;7346;0;0;0;0;9;0;3976;0;0;0;0
10.03.20;20:15:00;1;482;10772;0;2;0;6531;0;0;0;0;3;0;4087;0;0;0;0;4;0;5743;0;0;0;0;5;0;14611;2;0;0;0;0;0;6;0;10830;2;0;0;0;0;0;7;0;7297;0;0;0;0;8;0;7346;0;0;0;0;9;0;3976;0;0;0;0
10.03.20;20:10:00;1;482;10732;0;2;0;6531;0;0;0;0;3;0;4087;0;0;0;0;4;0;5743;0;0;0;0;5;0;14611;2;0;0;0;0;0;6;0;10830;2;0;0;0;0;0;7;0;7297;0;0;0;0;8;0;7346;0;0;0;0;9;0;3976;0;0;0;0
10.03.20;20:05:00;1;491;10692;0;2;0;6531;0;0;0;0;3;0;4087;0;0;0;0;4;0;5743;0;0;0;0;5;0;14611;2;0;0;0;0;0;6;0;10830;2;0;0;0;0;0;7;0;7297;0;0;0;0;8;0;7346;0;0;0;0;9;0;3976;0;0;0;0
10.03.20;20:00:00;1;588;10651;0;2;0;6531;0;0;0;0;3;0;4087;0;0;0;0;4;0;5743;0;0;0;0;5;0;14611;2;0;0;0;0;0;6;0;10830;2;0;0;0;0;0;7;0;7297;0;0;0;0;8;0;7346;0;0;0;0;9;0;3976;0;0;0;0
10.03.20;19:55:00;1;524;10603;0;2;0;6531;0;0;0;0;3;0;4087;0;0;0;0;4;0;5743;0;0;0;0;5;0;14611;2;0;0;0;0;0;6;0;10830;2;0;0;0;0;0;7;0;7297;0;0;0;0;8;0;7346;0;0;0;0;9;0;3976;0;0;0;0
10.03.20;19:50:00;1;525;10559;0;2;0;6531;0;0;0;0;3;0;4087;0;0;0;0;4;0;5743;0;0;0;0;5;0;14611;2;0;0;0;0;0;6;0;10830;2;0;0;0;0;0;7;0;7297;0;0;0;0;8;0;7346;0;0;0;0;9;0;3976;0;0;0;0
10.03.20;19:45:00;1;482;10515;0;2;0;6531;0;0;0;0;3;0;4087;0;0;0;0;4;0;5743;0;0;0;0;5;0;14611;2;0;0;0;0;0;6;0;10830;2;0;0;0;0;0;7;0;7297;0;0;0;0;8;0;7346;0;0;0;0;9;0;3976;0;0;0;0
10.03.20;19:40:00;1;481;10475;0;2;0;6531;0;0;0;0;3;0;4087;0;0;0;0;4;0;5743;0;0;0;0;5;0;14611;2;0;0;0;0;0;6;0;10830;2;0;0;0;0;0;7;0;7297;0;0;0;0;8;0;7346;0;0;0;0;9;0;3976;0;0;0;0
10.03.20;19:35:00;1;481;10435;0;2;0;6531;0;0;0;0;3;0;4087;0;0;0;0;4;0;5743;0;0;0;0;5;0;14611;2;0;0;0;0;0;6;0;10830;2;0;0;0;0;0;7;0;7297;0;0;0;0;8;0;7346;0;0;0;0;9;0;3976;0;0;0;0
10.03.20;19:30:00;1;516;10395;0;2;0;6531;0;0;0;0;3;0;4087;0;0;0;0;4;0;5743;0;0;0;0;5;0;14611;2;0;0;0;0;0;6;0;10830;2;0;0;0;0;0;7;0;7297;0;0;0;0;8;0;7346;0;0;0;0;9;0;3976;0;0;0;0
10.03.20;19:25:00;1;1165;10349;0;2;0;6531;0;0;0;0;3;0;4087;0;0;0;0;4;0;5743;0;0;0;0;5;0;14611;2;0;0;0;0;0;6;0;10830;2;0;0;0;0;0;7;0;7297;0;0;0;0;8;0;7346;0;0;0;0;9;0;3976;0;0;0;0
10.03.20;19:20:00;1;1657;10244;0;2;0;6531;0;0;0;0;3;0;4087;0;0;0;0;4;0;5743;0;0;0;0;5;0;14611;2;0;0;0;0;0;6;0;10830;2;0;0;0;0;0;7;0;7297;0;0;0;0;8;0;7346;0;0;0;0;9;0;3976;0;0;0;0
10.03.20;19:15:00;1;1534;10130;0;2;0;6531;0;0;0;0;3;0;4087;0;0;0;0;4;0;5743;0;0;0;0;5;0;14611;2;0;0;0;0;0;6;0;10830;2;0;0;0;0;0;7;0;7297;0;0;0;0;8;0;7346;0;0;0;0;9;0;3976;0;0;0;0
10.03.20;19:10:00;1;1791;10011;0;2;0;6531;0;0;0;0;3;0;4087;0;0;0;0;4;0;5743;0;0;0;0;5;0;14611;2;0;0;0;0;0;6;0;10830;2;0;0;0;0;0;7;0;7297;0;0;0;0;8;0;7346;0;0;0;0;9;0;3976;0;0;0;0
10.03.20;19:05:00;1;2329;9881;0;2;0;6531;0;0;0;0;3;0;4087;0;0;0;0;4;0;5743;0;0;0;0;5;0;14611;2;0;0;0;0;0;6;0;10830;2;0;0;0;0;0;7;0;7297;0;0;0;0;8;0;7346;0;0;0;0;9;0;3976;0;0;0;0
10.03.20;19:00:00;1;763;9699;0;2;0;6531;0;0;0;0;3;0;4087;0;0;0;0;4;0;5743;0;0;0;0;5;0;14611;2;0;0;0;0;0;6;0;10830;2;0;0;0;0;0;7;0;7297;0;0;0;0;8;0;7346;0;0;0;0;9;0;3976;0;0;0;0
10.03.20;18:55:00;1;729;9634;0;2;0;6531;0;0;0;0;3;0;4087;0;0;0;0;4;0;5743;0;0;0;0;5;0;14611;2;0;0;0;0;0;6;0;10830;2;0;0;0;0;0;7;0;7297;0;0;0;0;8;0;7346;0;0;0;0;9;0;3976;0;0;0;0
10.03.20;18:50:00;1;1786;9560;0;2;0;6531;0;0;0;0;3;0;4087;0;0;0;0;4;0;5743;0;0;0;0;5;0;14611;2;0;0;0;0;0;6;0;10830;2;0;0;0;0;0;7;0;7297;0;0;0;0;8;0;7346;0;0;0;0;9;0;3976;0;0;0;0
10.03.20;18:45:00;1;1820;9416;0;2;0;6531;0;0;0;0;3;0;4087;0;0;0;0;4;0;5743;0;0;0;0;5;0;14611;2;0;0;0;0;0;6;0;10830;2;0;0;0;0;0;7;0;7297;0;0;0;0;8;0;7346;0;0;0;0;9;0;3976;0;0;0;0
10.03.20;18:40:00;1;1852;9264;0;2;0;6531;0;0;0;0;3;0;4087;0;0;0;0;4;0;5743;0;0;0;0;5;0;14611;2;0;0;0;0;0;6;0;10830;2;0;0;0;0;0;7;0;7297;0;0;0;0;8;0;7346;0;0;0;0;9;0;3976;0;0;0;0
10.03.20;18:35:00;1;948;9110;0;2;0;6531;0;0;0;0;3;0;4087;0;0;0;0;4;0;5743;0;0;0;0;5;0;14611;2;0;0;0;0;0;6;0;10830;2;0;0;0;0;0;7;0;7297;0;0;0;0;8;0;7346;0;0;0;0;9;0;3976;0;0;0;0
10.03.20;18:30:00;1;756;9002;0;2;0;6531;0;0;0;0;3;0;4087;0;0;0;0;4;0;5743;0;0;0;0;5;0;14611;2;0;0;0;0;0;6;0;10830;2;0;0;0;0;0;7;0;7297;0;0;0;0;8;0;7346;0;0;0;0;9;0;3976;0;0;0;0
10.03.20;18:25:00;1;1031;8928;0;2;0;6531;0;0;0;0;3;0;4087;0;0;0;0;4;0;5743;0;0;0;0;5;0;14611;2;0;0;0;0;0;6;0;10830;2;0;0;0;0;0;7;0;7297;0;0;0;0;8;0;7346;0;0;0;0;9;0;3976;0;0;0;0
10.03.20;18:20:00;1;918;8845;0;2;0;6531;0;0;0;0;3;0;4087;0;0;0;0;4;0;5743;0;0;0;0;5;0;14611;2;0;0;0;0;0;6;0;10830;2;0;0;0;0;0;7;0;7297;0;0;0;0;8;0;7346;0;0;0;0;9;0;3976;0;0;0;0
10.03.20;18:15:00;1;697;8780;0;2;0;6531;0;0;0;0;3;0;4087;0;0;108;6;4;0;5743;0;0;0;0;5;0;14611;2;0;0;0;0;0;6;0;10830;2;0;0;0;0;0;7;0;7297;0;0;0;0;8;0;7346;0;0;0;0;9;0;3976;0;0;0;0
10.03.20;18:10:00;1;626;8722;0;2;0;6531;0;0;123;6;3;0;4087;6;0;276;15;4;0;5743;0;0;0;0;5;0;14611;2;0;0;0;0;0;6;0;10830;2;0;0;0;0;0;7;0;7297;0;0;0;0;8;0;7346;0;0;0;0;9;0;3976;0;0;0;0
10.03.20;18:05:00;1;623;8670;0;2;0;6531;6;0;289;12;3;0;4087;6;0;318;15;4;0;5743;0;0;41;6;5;0;14611;2;0;0;0;0;0;6;0;10830;2;0;0;0;0;0;7;0;7297;0;0;0;0;8;0;7346;0;0;0;0;9;0;3976;0;0;0;0
10.03.20;18:00:00;1;633;8618;0;2;0;6531;6;0;306;12;3;0;4087;6;0;360;16;4;0;5743;1;0;85;11;5;0;14611;2;0;0;0;0;0;6;0;10830;2;0;0;0;0;0;7;0;7297;0;0;0;0;8;0;7346;0;0;0;0;9;0;3976;0;0;0;0
10.03.20;17:55:00;1;684;8566;0;2;0;6531;6;0;341;13;3;0;4087;6;1;406;16;4;0;5743;1;0;124;11;5;0;14611;2;0;0;341;341;22;6;0;10830;23;6;3;180;447;20;7;0;7297;0;0;175;10;8;0;7346;0;0;178;10;9;0;3976;6;0;281;11
10.03.20;17:50:00;1;737;8508;0;2;0;6531;6;0;356;13;3;0;4087;6;0;443;16;4;0;5743;1;0;144;11;5;0;14611;23;0;0;382;380;22;6;0;10830;23;3;1;181;506;21;7;0;7297;6;0;287;15;8;0;7346;6;0;292;15;9;0;3976;6;0;310;11
10.03.20;17:45:00;1;631;8453;0;2;0;6531;6;0;375;13;3;1;4087;6;3;431;16;4;0;5743;1;0;175;11;5;0;14611;23;0;0;408;570;22;6;0;10830;23;6;2;181;541;21;7;0;7297;6;0;338;15;8;0;7346;6;0;344;15;9;0;3976;6;0;366;11
10.03.20;17:40:00;1;631;8401;0;2;0;6531;6;0;382;13;3;0;4087;6;0;478;16;4;0;5743;1;0;189;12;5;19;14611;4;0;4;380;578;23;6;0;10830;23;7;4;182;553;22;7;0;7297;6;0;365;15;8;0;7346;6;0;372;15;9;0;3976;6;0;399;11
10.03.20;17:35:00;1;655;8346;0;2;0;6531;6;0;395;13;3;1;4087;6;3;481;16;4;0;5743;1;0;205;12;5;8;14610;4;0;1;413;653;23;6;0;10830;23;4;2;418;573;22;7;0;7297;6;0;400;16;8;0;7346;6;0;409;15;9;0;3976;4;1;423;11
10.03.20;17:30:00;1;625;8292;0;2;0;6531;6;0;403;14;3;5;4087;4;9;445;16;4;0;5743;3;0;226;13;5;64;14609;4;9;9;378;597;24;6;0;10830;23;4;8;582;580;23;7;0;7297;6;0;436;16;8;0;7346;6;0;440;15;9;0;3976;3;0;481;11
10.03.20;17:25:00;1;610;8239;0;2;2;6531;6;7;408;14;3;2;4087;3;10;484;16;4;0;5743;3;0;200;13;5;100;14603;4;26;27;377;597;24;6;15;10830;1;7;12;561;470;23;7;1;7297;6;3;455;16;8;2;7346;6;7;437;15;9;1;3976;6;3;497;12
10.03.20;17:20:00;1;516;8188;0;2;13;6531;4;28;391;14;3;0;4087;6;0;541;17;4;7;5743;3;7;200;13;5;120;14595;4;44;38;378;597;24;6;59;10828;4;43;26;456;225;24;7;0;7297;6;0;488;16;8;0;7345;6;0;490;16;9;0;3976;6;0;540;12
10.03.20;17:15:00;1;457;8148;0;2;16;6531;3;32;392;14;3;2;4087;6;6;522;17;4;9;5742;3;9;200;13;5;137;14584;4;49;47;378;597;24;6;64;10823;4;28;16;456;224;24;7;3;7297;6;6;476;16;8;1;7345;6;7;469;16;9;0;3976;6;4;526;12
10.03.20;17:10:00;1;454;8110;0;2;0;6529;6;0;428;14;3;0;4086;6;0;546;17;4;4;5741;3;4;199;13;5;136;14573;4;46;46;378;597;24;6;67;10817;4;60;35;456;225;24;7;8;7296;6;22;435;16;8;9;7345;6;22;438;16;9;2;3976;6;14;483;12
10.03.20;17:05:00;1;489;8072;0;2;47;6529;4;74;361;15;3;4;4086;6;8;529;17;4;10;5741;3;11;199;13;5;153;14561;4;55;55;378;597;24;6;75;10811;4;49;28;456;224;24;7;7;7295;3;17;461;17;8;9;7344;4;16;457;16;9;2;3975;4;5;524;12
10.03.20;17:00:00;1;519;8030;0;2;53;6525;4;82;358;15;3;10;4086;4;26;478;17;4;11;5740;3;11;199;13;5;164;14548;4;63;59;378;597;24;6;82;10805;4;46;27;456;225;24;7;0;7295;6;0;507;17;8;0;7343;3;0;508;16;9;6;3975;3;16;490;12
10.03.20;16:55:00;1;520;7986;0;2;56;6521;4;85;359;15;3;8;4086;3;19;497;17;4;12;5739;3;13;198;13;5;171;14535;4;69;63;378;597;24;6;85;10798;4;56;34;456;224;24;7;19;7295;6;33;427;17;8;13;7343;6;24;455;17;9;3;3975;6;7;538;12
10.03.20;16:50:00;1;604;7942;0;2;71;6516;4;99;354;15;3;0;4085;6;0;562;17;4;26;5738;3;27;198;13;5;195;14520;4;83;70;378;597;24;6;94;10791;4;70;44;456;225;24;7;49;7293;4;73;350;17;8;46;7342;4;79;380;17;9;0;3975;6;0;568;12
10.03.20;16:45:00;1;580;7890;0;2;101;6510;4;132;373;15;3;31;4085;6;47;510;17;4;61;5736;3;63;198;13;5;255;14502;4;112;104;378;597;24;6;125;10782;4;84;47;456;224;24;7;74;7289;4;104;413;17;8;75;7338;4;107;430;17;9;6;3975;6;10;555;13
10.03.20;16:40:00;1;584;7842;0;2;116;6502;4;149;383;15;3;69;4083;4;98;470;18;4;79;5731;3;82;199;13;5;285;14481;4;137;112;378;597;24;6;135;10772;4;51;25;456;225;24;7;104;7283;4;127;386;17;8;91;7332;4;130;409;17;9;0;3974;6;0;585;13
10.03.20;16:35:00;1;551;7793;0;2;150;6492;4;182;384;15;3;87;4077;4;123;474;18;4;107;5724;3;112;224;13;5;347;14455;4;167;138;377;597;24;6;169;10759;4;101;55;456;224;24;7;99;7274;4;138;358;14;8;133;7325;4;164;407;17;9;60;3974;6;84;492;13
10.03.20;16:30:00;1;473;7747;0;2;167;6480;4;198;378;15;3;98;4070;4;135;474;18;4;119;5715;5;123;220;13;5;378;14426;4;181;162;377;597;24;6;180;10745;4;79;43;456;225;24;7;145;7264;4;183;421;17;8;149;7313;4;185;413;17;9;82;3969;4;109;465;13
10.03.20;16:25:00;1;466;7708;0;2;178;6466;4;211;389;15;3;103;4061;4;146;496;18;4;130;5705;5;136;224;13;5;405;14393;4;198;163;393;597;24;6;192;10729;4;117;63;456;224;24;7;163;7252;4;199;431;17;8;163;7301;4;202;439;17;9;89;3962;4;116;462;13
10.03.20;16:20:00;1;502;7669;0;2;185;6451;4;219;391;15;3;107;4053;4;149;498;18;4;140;5695;5;146;227;13;5;408;14359;4;202;172;386;597;24;6;204;10713;4;215;117;456;225;24;7;160;7238;4;207;457;17;8;161;7287;4;212;457;17;9;90;3955;4;119;461;14
10.03.20;16:15:00;1;510;7626;0;2;185;6436;4;217;373;15;3;105;4044;4;146;504;18;4;138;5683;5;144;225;14;5;419;14324;4;204;172;402;597;24;6;203;10696;4;126;67;456;225;24;7;186;7224;4;221;465;17;8;181;7274;4;220;471;17;9;122;3947;4;130;485;14
10.03.20;16:10:00;1;454;7587;0;2;184;6420;4;218;370;15;3;107;4035;4;147;510;18;4;146;5671;5;152;226;14;5;417;14289;4;199;180;388;597;24;6;201;10679;4;139;72;456;225;24;7;179;7209;4;214;457;17;8;178;7259;4;216;461;17;9;99;3937;4;127;489;14
10.03.20;16:05:00;1;470;7549;0;2;208;6405;4;243;385;15;3;122;4026;4;160;499;18;4;161;5659;5;168;229;14;5;459;14256;4;222;192;395;619;24;6;315;10660;4;131;163;470;532;24;7;189;7193;4;236;457;17;8;194;7245;4;235;458;17;9;106;3929;4;134;496;14
10.03.20;16:00:00;1;492;7510;0;2;229;6387;4;259;399;15;3;142;4016;4;179;486;18;4;170;5646;5;177;223;14;5;509;14217;4;250;202;415;661;24;6;376;10633;4;257;274;569;550;24;7;215;7177;4;256;457;18;8;225;7228;4;256;457;17;9;118;3920;4;153;513;14
10.03.20;15:55:00;1;496;7468;0;2;280;6368;4;315;384;15;3;167;4004;4;208;509;17;4;227;5631;5;236;235;14;5;603;14172;4;297;247;408;636;24;6;448;10599;4;225;240;564;560;24;7;277;7159;4;315;465;18;8;277;7210;4;319;467;17;9;151;3910;4;180;516;14
10.03.20;15:50:00;1;511;7427;0;2;251;6345;4;290;395;15;3;155;3990;4;195;514;17;4;204;5612;5;212;233;14;5;559;14122;4;283;233;411;636;24;6;423;10562;4;239;256;579;558;24;7;265;7136;4;316;469;18;8;271;7187;4;317;485;17;9;155;3898;4;185;517;14
10.03.20;15:45:00;1;502;7384;0;2;260;6325;4;300;384;15;3;159;3978;4;200;506;17;4;212;5596;5;221;233;14;5;560;14076;4;277;234;407;626;24;6;423;10527;4;204;224;574;562;24;7;268;7114;4;308;473;18;8;269;7164;4;311;461;17;9;148;3885;4;179;513;14
10.03.20;15:40:00;1;537;7340;0;2;263;6303;4;296;375;15;3;156;3964;4;198;522;17;4;199;5579;5;207;228;14;5;545;14030;4;265;226;405;639;24;6;407;10492;4;178;187;575;565;24;7;236;7091;4;258;461;18;8;236;7142;4;265;449;17;9;123;3872;4;153;512;14
10.03.20;15:35:00;1;282;7294;0;2;296;6280;4;334;394;15;3;182;3951;4;222;511;17;4;243;5561;5;253;234;14;5;624;13984;4;306;260;407;634;24;6;463;10458;4;234;256;584;560;24;7;280;7072;4;313;465;18;8;270;7122;4;313;479;17;9;147;3862;4;179;520;14
10.03.20;15:30:00;1;212;7270;0;2;333;6256;4;374;403;15;3;205;3936;4;247;506;17;4;281;5541;5;293;235;14;5;701;13932;4;343;295;422;672;24;6;524;10419;4;295;303;585;568;24;7;321;7049;4;362;477;18;8;320;7100;4;358;485;17;9;178;3850;4;210;520;14
10.03.20;15:25:00;1;206;7252;0;2;361;6228;4;400;400;15;3;220;3918;4;264;511;17;4;301;5517;5;313;236;14;5;755;13872;4;377;318;411;671;25;6;562;10374;4;272;287;586;571;24;7;366;7024;4;410;485;18;8;372;7073;4;415;482;17;9;200;3835;4;235;522;14
10.03.20;15:20:00;1;206;7235;0;2;323;6198;4;362;403;15;3;195;3900;4;239;494;17;4;264;5492;5;274;231;14;5;674;13810;4;328;285;412;634;25;6;509;10328;4;268;273;588;559;24;7;351;6993;4;383;476;18;8;341;7043;4;385;485;17;9;190;3819;4;224;516;14
10.03.20;15:15:00;1;292;7217;0;2;381;6171;4;421;403;15;3;234;3884;4;278;512;17;4;314;5470;5;327;237;15;5;773;13750;4;384;323;417;655;25;6;571;10283;4;296;308;580;568;24;7;366;6965;4;399;475;18;8;360;7015;4;404;481;17;9;199;3803;4;230;523;14
10.03.20;15:10:00;1;249;7192;0;2;420;6139;4;465;403;15;3;258;3864;4;303;506;17;4;348;5444;5;363;237;15;5;852;13687;4;423;352;423;657;25;6;614;10236;4;294;295;574;561;24;7;390;6934;4;439;477;18;8;392;6985;4;437;489;17;9;216;3787;4;250;516;14
10.03.20;15:05:00;1;249;7172;0;2;428;6104;4;470;408;15;3;260;3842;4;311;511;18;4;364;5414;5;379;239;15;5;893;13615;4;449;374;416;685;25;6;664;10182;4;346;357;588;567;24;7;429;6902;4;478;469;18;8;442;6952;4;483;469;17;9;238;3769;4;273;521;15
10.03.20;15:00:00;1;205;7150;0;2;465;6068;4;511;403;15;3;284;3820;4;336;526;18;4;383;5384;5;399;240;15;5;950;13540;4;475;394;415;713;25;6;720;10127;4;426;429;600;582;24;7;463;6866;4;500;476;18;8;456;6916;4;499;461;18;9;244;3749;4;280;528;15
10.03.20;14:55:00;1;268;7130;0;2;383;6029;4;422;401;15;3;237;3797;4;280;508;18;4;319;5352;5;332;236;15;5;801;13466;4;401;337;420;677;25;6;599;10071;4;305;317;591;570;24;7;381;6827;4;426;485;18;8;392;6877;4;435;471;18;9;212;3729;4;246;519;15
10.03.20;14:50:00;1;269;7108;0;2;412;5997;4;452;398;15;3;255;3777;4;299;498;18;4;344;5325;5;359;236;15;5;844;13399;4;422;349;421;685;25;6;633;10021;4;356;364;594;577;24;7;404;6794;4;438;485;18;8;409;6844;4;446;485;18;9;219;3711;4;257;524;15
10.03.20;14:45:00;1;321;7085;0;2;348;5963;4;388;399;16;3;214;3756;4;256;511;18;4;287;5298;5;299;236;15;5;726;13335;4;365;303;415;651;25;6;544;9973;4;285;294;577;569;24;7;313;6760;4;383;475;18;8;336;6810;4;381;483;18;9;187;3692;4;221;516;15
10.03.20;14:40:00;1;348;7058;0;2;329;5934;4;370;402;16;3;204;3738;4;247;494;18;4;274;5274;5;285;240;15;5;694;13274;4;344;290;408;649;25;6;518;9928;4;271;285;580;567;24;7;353;6734;4;383;465;18;8;343;6782;4;391;477;18;9;187;3676;4;217;500;15
10.03.20;14:35:00;1;343;7035;0;2;342;5907;4;383;401;16;3;208;3721;4;253;512;18;4;285;5251;5;297;234;15;5;730;13214;4;366;304;413;645;25;6;547;9883;4;288;304;570;560;24;7;352;6705;4;393;469;18;8;342;6754;4;389;486;18;9;190;3661;4;220;523;15
10.03.20;14:30:00;1;324;7007;0;2;363;5878;4;406;398;16;3;225;3704;4;270;506;18;4;303;5227;5;315;234;16;5;757;13153;4;377;314;415;643;25;6;562;9837;4;281;294;573;568;24;7;385;6675;4;436;476;18;8;397;6725;4;437;481;18;9;215;3645;4;252;520;15
10.03.20;14:25:00;1;333;6978;0;2;524;5848;4;570;404;16;3;322;3685;4;368;501;18;4;441;5202;5;459;241;16;5;1024;13080;4;524;436;416;693;25;6;778;9783;4;361;361;593;577;24;7;506;6645;4;551;471;18;8;512;6693;4;556;473;18;9;273;3627;4;314;527;15
10.03.20;14:20:00;1;319;6950;0;2;561;5805;4;608;402;16;3;351;3659;4;400;510;18;4;475;5166;5;494;241;16;5;1102;12993;4;557;470;416;704;25;6;836;9718;4;419;429;597;579;24;7;588;6603;4;632;481;18;8;584;6650;4;637;477;18;9;317;3605;4;353;528;16
10.03.20;14:15:00;1;329;6923;0;2;739;5758;4;793;414;17;3;460;3630;4;516;515;18;4;642;5126;5;669;242;16;5;1493;12897;4;764;643;426;699;25;6;1118;9645;4;582;587;606;577;24;7;789;6553;4;841;483;18;8;787;6601;4;835;478;18;9;425;3578;4;469;535;16
10.03.20;14:10:00;1;368;6894;0;2;758;5697;4;809;411;17;3;480;3592;4;536;525;18;4;651;5073;5;678;245;16;5;1470;12772;4;750;629;434;696;25;6;1110;9551;4;555;548;618;564;24;7;801;6488;4;851;477;18;8;801;6536;4;850;477;18;9;440;3543;4;488;536;16